Current Version              Previous Version:    01  02  03  04  05  06  07  08  09  10  11  12  13  14  15  16  17  18  19  20  21  22  23  24  25  26  27  28  29  30  
   31  32  33  34  35  36  37  38  39  40  41  42  43  44  45  46  47  48  49  50  51  52  53  54  55  56  57  58  59  60  

[Printable]
132
ASUS44 KEWX 311102
RWRTX
SOUTH TEXAS REGIONAL WEATHER ROUNDUP
NATIONAL WEATHER SERVICE AUSTIN/SAN ANTONIO TX
500 AM CST SAT JAN 31 2015

NOTE: "FAIR" INDICATED FEW OR NO CLOUDS BELOW 12,000 FEET WITH NO
SIGNIFICANT WEATHER AND/OR OBSTRUCTIONS TO VISIBILITY.

* - THESE STATIONS ARE NOT NWS OR FAA STATIONS...AND ARE NOT SUBJECT
    TO NWS AND FAA QUALITY CONTROL.

TXZ171-172-183>190-311200-
TEXAS HILL COUNTRY AND EDWARDS PLATEAU

CITY           SKY/WX    TMP DP  RH WIND       PRES   REMARKS
JUNCTION       CLOUDY    50  40  68 SE7       30.11F WCI  47
*LLANO         CLOUDY    48  37  66 CALM      30.19F
BURNET         CLOUDY    48  39  71 S8        30.17F WCI  44
*HORSESHOE BAY CLOUDY    49  40  69 SE5       30.16F WCI  48
*KERRVILLE     CLOUDY    49  40  72 E6        30.14F WCI  46
*FREDERICKSBRG CLOUDY    48  38  68 SE8       30.13F WCI  44
*ROCKSPRINGS   CLOUDY    46  45  93 E9        30.10F FOG     WCI  42
*BOERNE STAGE  CLOUDY    48  37  66 E3        30.15F
*CASTROVILLE   CLOUDY    52  41  65 E8        30.14F
HONDO          CLOUDY    51  40  65 E12       30.13F
*UVALDE        RAIN      50  44  81 E9        30.11F WCI  46
DEL RIO        LGT RAIN  49  48  97 S5        30.08F FOG     WCI  47
LAUGHLIN AFB   DRIZZLE   48  48 100 SE8       30.08F FOG     WCI  45
CARRIZO SPRGS  CLOUDY    50  50 100 E7        30.07F FOG     WCI  47
$$

TXZ173-191>194-202-209-217>225-228-311200-
CENTRAL AND SOUTH CENTRAL TEXAS

CITY           SKY/WX    TMP DP  RH WIND       PRES   REMARKS
GEORGETOWN     CLOUDY    46  37  71 SE3       30.18F
AUSTIN/BERGSTM CLOUDY    49  42  77 E5        30.17F WCI  47
AUSTIN/MABRY   CLOUDY    50  41  71 SE6       30.18F WCI  48
*AUSTIN/EXEC   CLOUDY    46  41  81 CALM      30.19F
*LAGO VISTA    CLOUDY    49  41  73 SE5       30.16F WCI  47
SAN MARCOS     CLOUDY    50  43  76 E9        30.16F WCI  46
NEW BRAUNFELS  CLOUDY    51  46  83 E8        30.15F
RANDOLPH AFB   CLOUDY    50  46  85 NE10      30.13F WCI  46
PT SAN ANTONIO CLOUDY    51  46  82 NE9       30.11F
SAN ANTONIO    CLOUDY    51  45  79 E9        30.13F
STINSON FIELD  CLOUDY    51  46  83 E9        30.11F
*PLEASANTON    CLOUDY    51  48  87 NE6       30.13F
*LA GRANGE     CLOUDY    47  43  84 CALM      30.18F
*GIDDINGS      CLOUDY    45  40  82 CALM      30.23F
*GONZALES      NOT AVBL
$$

TXZ163>164-176>182-195>201-210>213-226-227-235-311200-
SOUTHEAST TEXAS

CITY           SKY/WX    TMP DP  RH WIND       PRES   REMARKS
COLLEGE STN    MOCLDY    44  35  70 E5        30.21F WCI  42
*BRYAN         MOCLDY    42  35  75 NE5       30.23S WCI  39
*CALDWELL      MOCLDY    45  36  70 CALM      30.25R
*CROCKETT      MOCLDY    46  37  71 E5        30.27F WCI  44
*BRENHAM       MOCLDY    46  37  73 E3        30.22S
HUNTSVILLE     PTCLDY    44  34  67 E5        30.21F WCI  42
CONROE         PTCLDY    42  34  73 E5        30.22F WCI  39
HOUSTON BUSH   PTCLDY    43  37  79 CALM      30.22F
HOUSTON HOBBY  MOCLDY    49  43  80 E7        30.21S WCI  46
*HOUSTON SW AP MOCLDY    46  43  91 NE3       30.21F
PEARLAND       MOCLDY    50  45  83 E12       30.22F WCI  46
HOUSTON HOOKS  MOCLDY    44  36  73 E6        30.21F WCI  41
ELLINGTON FLD  NOT AVBL
SUGAR LAND     MOCLDY    50  42  74 E8        30.19F WCI  47
*HOUSTON EXEC  MOCLDY    45  39  81 E7        30.21F WCI  41
*CLEVELAND MUN MOCLDY    41  37  87 CALM      30.24F
*WHARTON       CLOUDY    50  46  88 NE5       30.18F WCI  48
*COLUMBUS      CLOUDY    47  44  88 NE3       30.18F
$$

TXZ214>216-236>238-311200-
THE UPPER TEXAS COAST

CITY           SKY/WX    TMP DP  RH WIND       PRES   REMARKS
*ORANGE        CLEAR     38  36  91 CALM      30.26F
PORT ARTHUR    CLEAR     44  37  76 NE9       30.23F WCI  39
GALVESTON      MOCLDY    55  49  80 E10       30.21F
ANGLETON       MOCLDY    53  50  89 E7        30.17F
*BAY CITY      CLOUDY    53  52  95 NE7       30.16F
PALACIOS       CLOUDY    57  53  86 E10       30.16S
$$

TXZ229>234-239>247-311200-
TEXAS COASTAL BEND AND RIO GRANDE PLAINS

CITY           SKY/WX    TMP DP  RH WIND       PRES   REMARKS
VICTORIA       CLOUDY    53  50  89 NE8       30.16F
*BEEVILLE      CLOUDY    54  53  96 NE12      30.11F
ROCKPORT       CLOUDY    60  57  89 NE13      30.12F
*PORT ARANSAS  CLOUDY    61  59  94 E9        30.10F
*PORT LAVACA   CLOUDY    57  54  89 E10       30.15F
*INGLESIDE     CLOUDY    60  57  89 E10       30.11F
CORPUS CHRISTI LGT RAIN  61  58  90 E16       30.09F
CORPUS NAS     CLOUDY    61  60  97 NE8       30.09F
*ROBSTOWN      NOT AVBL
ALICE          CLOUDY    58  55  90 E10       30.09F
KINGSVILLE NAS CLOUDY    60  60 100 VRB5      30.09F
COTULLA        NOT AVBL
*FAITH RANCH   CLOUDY    54  54 100 E10G17    30.07F
LAREDO         CLOUDY    59  57  92 E13       30.07F
$$

TXZ248>255-311200-
DEEP SOUTH TEXAS

CITY           SKY/WX    TMP DP  RH WIND       PRES   REMARKS
BROWNSVILLE    PTCLDY    62  60  93 SE6       30.08F
PORT ISABEL    PTCLDY    64  61  90 SE8       30.07F
*SOUTH PADRE   CLOUDY    63  63 100 SW12      30.08F
HARLINGEN      PTCLDY    58  58 100 E7        30.07F FOG
*HEBBRONVILLE  RAIN      57  56  97 E10       30.09S
MCALLEN        MOCLDY    64  61  90 SE12      30.06F
*WESLACO       PTCLDY    62  60  90 E6        30.07F
FALFURRIAS     CLOUDY    59  56  91 NE7       30.08F
EDINBURG       CLOUDY    64  61  91 E8        30.07F
*ZAPATA        CLOUDY    61  60  97 E9        30.05F
$$

TXZ213>215-236>238-242>244-246-247-251-254-255-311200-
CMAN STATIONS

STATION/POSITION TIME  TEMP    WIND        PRES    WAVE
                       AIR SEA DIR/SP/G            HT/PER
                 (UTC) (F)     (DEG/KT/KT) (MB)    (FT/S)
SABINE PASS      1000   47 56   70/  8/ 10 1024.1
SEA RIM ST PARK  1000   45      60/  7/  8 1024.5
NORTH JETTY/GLS  1000   56 59  130/ 19/ 20   N/A
EAGLE POINT      1000   52 56   90/  9/ 12 1023.1
MORGANS POINT    1000   50      90/ 10/ 12 1023.1
MISSION/ARANSAS  1000   59     VRB  9      1021.0
PORT O`CONNOR    1000           70/ 18/ 19   N/A
PORT ARANSAS     1000   61 60   40/  8/  9 1020.5
MALAQUITE BEACH  1000   62 62   80/ 12/ 13 1018.6
BAFFIN BAY       1000   63     110/ 11/ 12 1018.8
PORT ISABEL      1000   63 62  100/  9/ 10 1018.6
$$

GMZ080-GMZ150>470-311200-
OFFSHORE BUOY REPORTS

STATION/POSITION TIME  TEMP    WIND        PRES    WAVE
                       AIR SEA DIR/SP/G            HT/PER
                 (UTC) (F)     (DEG/KT/KT) (MB)    (FT/S)
20 E GALVESTON   1100   58 57  110/ 16/ 17 1021.9    3/ 5
90 E PT ARANSAS  1100   66 68  110/ 17/ 21 1020.6    4/ 6
35 NE PT MANSFLD 1100   69 69  140/ 17/ 21 1018.5    6/ 7
200 E PT ISABEL  1100   69 72   90/ 16/ 17 1020.2    4/ 7
$$